Delta, CO

12:53 AM MST on February 22, 2017 (GMT -0700)
Delta

Weather History for KAJZ - March, 2013

Change the Weather History Date:

Wednesday, March 20, 2013

  Actual Average (KMTJ) Record (KMTJ)
Temperature  
Mean Temperature 42 °F -  
Max Temperature 56 °F 57 °F 77 °F (2004)
Min Temperature 27 °F 30 °F 21 °F (2012)
Degree Days  
Heating Degree Days 24    
Moisture  
Dew Point 15 °F    
Average Humidity 36    
Maximum Humidity 61    
Minimum Humidity 19    
Precipitation  
Precipitation 0.00 in - - ()
Sea Level Pressure  
Sea Level Pressure 30.10 in    
Wind  
Wind Speed 5 mph (NE)    
Max Wind Speed 18 mph    
Max Gust Speed 22 mph    
Visibility 10 miles    
Events      
Averages and records for this station are not official NWS values.
T = Trace of Precipitation, MM = Missing Value Source: NWS Daily Summary

Daily Weather History Graph

Daily Weather History Graph

Search for Another Location

Airport or City:

Trip Planner

Search our weather history database for the weather conditions in past years. The results will help you decide how hot, cold, wet, or windy it might be!

Date:

Astronomy

Mar. 20, 2013 Rise Set
Actual Time 7:15 AM MDT 7:24 PM MDT
Civil Twilight 6:48 AM MDT 7:51 PM MDT
Nautical Twilight 6:17 AM MDT 8:22 PM MDT
Astronomical Twilight 5:46 AM MDT 8:53 PM MDT
Moon 1:05 PM MDT (3/20) 2:53 AM MDT (3/20)
Length of Visible Light 13h 02m
Length of Day
12h 09m
First Quarter, 60% of the Moon is Illuminated
Mar 20
First Quarter
Mar 27
Full
Apr 2
Last Quarter
Apr 10
New
Apr 18
First Quarter

Hourly Weather History & Observations

Time (MDT) Temp. Windchill Dew Point Humidity Pressure Visibility Wind Dir Wind Speed Gust Speed Precip Events Conditions
12:15 AM 33.8 °F 28.6 °F 5.7 °F 31% 30.23 in 10.0 mi NE 5.8 mph - N/A   Clear
12:35 AM 34.0 °F - 3.9 °F 28% 30.24 in 10.0 mi Calm Calm - N/A   Clear
12:55 AM 34.2 °F 30.0 °F 4.5 °F 29% 30.23 in 10.0 mi ENE 4.6 mph - N/A   Clear
1:15 AM 32.2 °F 27.7 °F 2.3 °F 28% 30.23 in 10.0 mi ENE 4.6 mph - N/A   Clear
1:35 AM 33.3 °F 27.1 °F 2.3 °F 27% 30.24 in 10.0 mi East 6.9 mph - N/A   Clear
1:55 AM 32.2 °F 25.8 °F 2.8 °F 29% 30.23 in 10.0 mi ENE 6.9 mph - N/A   Clear
2:15 AM 31.5 °F 24.9 °F 3.2 °F 30% 30.24 in 10.0 mi ENE 6.9 mph - N/A   Clear
2:35 AM 32.0 °F 23.6 °F 4.3 °F 31% 30.24 in 10.0 mi ENE 10.4 mph - N/A   Clear
2:55 AM 32.0 °F 24.8 °F 4.1 °F 31% 30.23 in 10.0 mi NE 8.1 mph - N/A   Clear
3:15 AM 31.1 °F 24.5 °F 4.3 °F 32% 30.23 in 10.0 mi NE 6.9 mph - N/A   Clear
3:35 AM 32.5 °F 28.1 °F 7.0 °F 34% 30.23 in 10.0 mi East 4.6 mph - N/A   Clear
3:55 AM 31.8 °F 26.2 °F 6.1 °F 34% 30.22 in 10.0 mi NE 5.8 mph - N/A   Clear
4:15 AM 29.8 °F 24.9 °F 8.1 °F 40% 30.21 in 10.0 mi NE 4.6 mph - N/A   Clear
4:35 AM 30.9 °F 27.5 °F 4.5 °F 33% 30.21 in 10.0 mi ENE 3.5 mph - N/A   Clear
4:55 AM 29.1 °F - 8.8 °F 43% 30.21 in 10.0 mi Calm Calm - N/A   Clear
5:15 AM 30.6 °F - 7.9 °F 39% 30.21 in 10.0 mi Calm Calm - N/A   Clear
5:35 AM 28.4 °F 23.3 °F 7.2 °F 41% 30.21 in 10.0 mi NE 4.6 mph - N/A   Clear
5:55 AM 29.8 °F 23.0 °F 6.6 °F 38% 30.21 in 10.0 mi East 6.9 mph - N/A   Clear
6:15 AM 28.8 °F 21.7 °F 7.7 °F 41% 30.21 in 10.0 mi East 6.9 mph - N/A   Clear
6:35 AM 27.5 °F - 8.1 °F 44% 30.22 in 10.0 mi Calm Calm - N/A   Clear
6:55 AM 27.7 °F 22.4 °F 11.3 °F 50% 30.22 in 10.0 mi NNE 4.6 mph - N/A   Clear
7:15 AM 29.3 °F 23.2 °F 9.7 °F 44% 30.21 in 10.0 mi NNE 5.8 mph - N/A   Clear
7:35 AM 28.2 °F 21.0 °F 11.3 °F 49% 30.22 in 10.0 mi NE 6.9 mph - N/A   Clear
7:55 AM 31.8 °F 25.4 °F 8.6 °F 38% 30.21 in 10.0 mi East 6.9 mph - N/A   Clear
8:15 AM 31.6 °F 28.3 °F 9.3 °F 39% 30.21 in 10.0 mi NE 3.5 mph - N/A   Clear
8:35 AM 34.5 °F 30.4 °F 8.6 °F 34% 30.21 in 10.0 mi ENE 4.6 mph - N/A   Clear
8:55 AM 36.3 °F 31.6 °F 8.6 °F 32% 30.20 in 10.0 mi ENE 5.8 mph - N/A   Clear
9:15 AM 37.6 °F 34.0 °F 10.2 °F 32% 30.19 in 10.0 mi ESE 4.6 mph - N/A   Clear
9:35 AM 37.8 °F - 12.0 °F 35% 30.18 in 10.0 mi Calm Calm - N/A   Clear
9:55 AM 39.0 °F - 11.3 °F 32% 30.18 in 10.0 mi Calm Calm - N/A   Clear
10:15 AM 40.6 °F - 10.4 °F 29% 30.17 in 10.0 mi Calm Calm - N/A   Clear
10:35 AM 42.1 °F - 11.1 °F 28% 30.16 in 10.0 mi Calm Calm - N/A   Clear
10:55 AM 43.7 °F - 11.5 °F 27% 30.15 in 10.0 mi Calm Calm - N/A   Mostly Cloudy
11:15 AM 44.2 °F - 11.3 °F 26% 30.14 in 10.0 mi Calm Calm - N/A   Overcast
11:35 AM 46.0 °F - 12.0 °F 25% 30.13 in 10.0 mi Calm Calm - N/A   Mostly Cloudy
11:55 AM 46.2 °F - 11.5 °F 25% 30.13 in 10.0 mi Calm Calm - N/A   Mostly Cloudy
12:15 PM 46.2 °F - 12.6 °F 26% 30.12 in 10.0 mi Calm Calm - N/A   Mostly Cloudy
12:35 PM 46.2 °F 45.0 °F 12.7 °F 26% 30.11 in 10.0 mi SW 3.5 mph - N/A   Mostly Cloudy
12:55 PM 46.6 °F - 12.7 °F 26% 30.10 in 7.0 mi Calm Calm - N/A   Overcast
1:15 PM 47.7 °F - 12.2 °F 24% 30.08 in 10.0 mi Calm Calm - N/A   Overcast
1:35 PM 48.9 °F - 12.4 °F 23% 30.07 in 10.0 mi Calm Calm - N/A   Mostly Cloudy
1:55 PM 49.8 °F - 12.6 °F 23% 30.07 in 10.0 mi Calm Calm - N/A   Mostly Cloudy
2:15 PM 50.9 °F - 11.8 °F 21% 30.05 in 10.0 mi Calm Calm - N/A   Mostly Cloudy
2:35 PM 51.6 °F - 12.0 °F 21% 30.04 in 10.0 mi Calm Calm - N/A   Mostly Cloudy
2:55 PM 52.3 °F - 12.7 °F 21% 30.02 in 10.0 mi NNE 3.5 mph - N/A   Overcast
3:15 PM 52.9 °F - 12.9 °F 20% 30.00 in 10.0 mi NNE 4.6 mph - N/A   Overcast
3:35 PM 53.4 °F - 12.9 °F 20% 30.00 in 10.0 mi NE 5.8 mph - N/A   Overcast
3:55 PM 54.3 °F - 12.7 °F 19% 29.99 in 10.0 mi ENE 5.8 mph - N/A   Overcast
4:15 PM 55.2 °F - 13.1 °F 19% 29.98 in 10.0 mi ENE 5.8 mph - N/A   Overcast
4:35 PM 55.6 °F - 14.2 °F 20% 29.98 in 7.0 mi NNE 6.9 mph - N/A   Overcast
4:55 PM 56.3 °F - 15.3 °F 20% 29.97 in 10.0 mi NNE 6.9 mph - N/A   Overcast
5:15 PM 56.7 °F - 15.8 °F 20% 29.96 in 10.0 mi NNE 9.2 mph - N/A   Overcast
5:35 PM 56.1 °F - 24.4 °F 29% 29.96 in 10.0 mi ENE 15.0 mph 20.7 mph N/A   Overcast
5:55 PM 55.4 °F - 26.4 °F 33% 29.96 in 10.0 mi NNE 12.7 mph - N/A   Overcast
6:15 PM 53.8 °F - 29.1 °F 39% 29.96 in 10.0 mi NNE 15.0 mph - N/A   Overcast
6:35 PM 53.6 °F - 29.1 °F 39% 29.96 in 10.0 mi NNE 10.4 mph - N/A   Overcast
6:55 PM 53.8 °F - 28.4 °F 38% 29.96 in 10.0 mi ENE 13.8 mph 17.3 mph N/A   Overcast
7:15 PM 52.0 °F - 31.6 °F 46% 29.96 in 10.0 mi ENE 13.8 mph 19.6 mph N/A   Overcast
7:35 PM 50.0 °F - 34.3 °F 55% 29.96 in 10.0 mi NE 18.4 mph 21.9 mph N/A   Overcast
7:55 PM 48.4 °F - 35.6 °F 61% 29.96 in 10.0 mi NE 16.1 mph - N/A   Overcast
8:15 PM 48.2 °F - 35.4 °F 61% 29.95 in 10.0 mi NE 13.8 mph - N/A   Overcast
8:35 PM 48.6 °F - 34.7 °F 59% 29.94 in 10.0 mi NE 15.0 mph 20.7 mph N/A   Overcast
8:55 PM 48.7 °F - 34.0 °F 57% 29.94 in 10.0 mi NE 12.7 mph - N/A   Overcast
9:15 PM 49.5 °F - 33.3 °F 54% 29.93 in 10.0 mi NE 10.4 mph - N/A   Overcast
9:35 PM 48.7 °F - 33.1 °F 55% 29.92 in 10.0 mi NNE 9.2 mph - N/A   Overcast
9:55 PM 49.1 °F - 32.0 °F 52% 29.92 in 10.0 mi NNE 9.2 mph - N/A   Overcast
10:15 PM 48.7 °F - 32.0 °F 52% 29.92 in 10.0 mi East 8.1 mph - N/A   Overcast
10:35 PM 47.5 °F - 32.7 °F 57% 29.92 in 10.0 mi ENE 9.2 mph - N/A   Overcast
10:55 PM 46.8 °F - 32.4 °F 57% 29.91 in 10.0 mi ENE 8.1 mph - N/A   Overcast
11:15 PM 46.6 °F - 32.0 °F 57% 29.90 in 10.0 mi ENE 8.1 mph - N/A   Overcast
11:35 PM 46.0 °F 41.9 °F 32.0 °F 58% 29.89 in 10.0 mi ENE 8.1 mph - N/A   Overcast